Powrót do katalogu

STARLINK-11173

AktywnyŁącznośćVLEO
NORAD 60192·PAYLOAD·🇺🇸 United States

Wystrzelony Jul 3, 2024 z Cape Canaveral Space Force Station

Loading…

Następne Przeloty (najbliższe 24 godziny)

TLE

ŚwieżeSource: CelesTrak SupGP

Epoka: Sep 15, 2026, 02:43 UTC

1 60192C 24124K   26258.11368056  .00061021  00000+0  50251-3 0  2587
2 60192  53.1567 307.6032 0001196  86.3707 262.2650 15.69685431    18

Śledź STARLINK-11173 w czasie rzeczywistym z AllMySat

Download on the App Store